Time,TemperatureF,DewpointF,PressureIn,WindDirection,WindDirectionDegrees,WindSpeedMPH,WindSpeedGustMPH,Humidity,HourlyPrecipIn,Conditions,Clouds,dailyrainin,SolarRadiationWatts/m^2,SoftwareType,DateUTC
2013-05-11 00:01:00,60.9,55.0,29.74,SSE,149,0.0,1.0,81,0.00,,,0.00,0,Wunderground v.1.15,2013-05-11 04:01:00,
2013-05-11 00:02:00,60.9,55.0,29.74,SW,229,0.0,1.0,81,0.00,,,0.00,0,Wunderground v.1.15,2013-05-11 04:02:00,
2013-05-11 00:03:00,61.0,54.8,29.74,SW,229,0.0,1.0,80,0.00,,,0.00,0,Wunderground v.1.15,2013-05-11 04:03:00,
2013-05-11 00:06:00,61.3,54.7,29.74,SW,229,0.0,1.0,79,0.00,,,0.00,0,Wunderground v.1.15,2013-05-11 04:06:00,
2013-05-11 00:11:00,61.8,54.2,29.74,SE,137,0.0,2.0,76,0.00,,,0.00,0,Wunderground v.1.15,2013-05-11 04:11:00,
2013-05-11 00:16:00,62.4,54.4,29.73,SE,138,0.0,2.0,75,0.00,,,0.00,0,Wunderground v.1.15,2013-05-11 04:16:00,
2013-05-11 00:21:00,62.7,53.9,29.73,SE,146,0.0,0.0,73,0.00,,,0.00,0,Wunderground v.1.15,2013-05-11 04:21:00,
2013-05-11 00:26:00,63.2,54.0,29.73,SE,146,0.0,1.0,72,0.00,,,0.00,0,Wunderground v.1.15,2013-05-11 04:26:00,
2013-05-11 00:31:00,63.5,53.5,29.73,South,171,0.0,0.0,70,0.00,,,0.00,0,Wunderground v.1.15,2013-05-11 04:31:00,
2013-05-11 00:37:00,63.9,53.5,29.73,South,171,0.0,1.0,69,0.00,,,0.00,0,Wunderground v.1.15,2013-05-11 04:37:00,
2013-05-11 00:42:00,64.0,54.0,29.73,South,171,0.0,1.0,70,0.00,,,0.00,0,Wunderground v.1.15,2013-05-11 04:42:00,
2013-05-11 00:47:00,64.2,53.8,29.73,SW,223,0.0,3.0,69,0.00,,,0.00,0,Wunderground v.1.15,2013-05-11 04:47:00,
2013-05-11 00:53:00,64.3,53.9,29.73,SW,223,0.0,0.0,69,0.00,,,0.00,0,Wunderground v.1.15,2013-05-11 04:53:00,
2013-05-11 00:59:00,64.5,53.7,29.73,SW,222,0.0,0.0,68,0.00,,,0.00,0,Wunderground v.1.15,2013-05-11 04:59:00,
2013-05-11 01:04:00,64.5,53.3,29.74,SSW,193,0.0,2.0,67,0.00,,,0.00,0,Wunderground v.1.15,2013-05-11 05:04:00,
2013-05-11 01:10:00,64.7,54.3,29.74,SE,135,1.0,1.0,69,0.00,,,0.00,0,Wunderground v.1.15,2013-05-11 05:10:00,
2013-05-11 01:15:00,64.5,54.9,29.75,SE,124,0.0,1.0,71,0.00,,,0.01,0,Wunderground v.1.15,2013-05-11 05:15:00,
2013-05-11 01:21:00,64.2,55.4,29.75,ESE,122,0.0,0.0,73,0.00,,,0.01,0,Wunderground v.1.15,2013-05-11 05:21:00,
2013-05-11 01:26:00,63.7,56.0,29.75,ESE,122,0.0,0.0,76,0.00,,,0.01,0,Wunderground v.1.15,2013-05-11 05:26:00,
2013-05-11 01:32:00,63.4,56.1,29.75,ESE,122,0.0,0.0,77,0.00,,,0.01,0,Wunderground v.1.15,2013-05-11 05:32:00,
2013-05-11 01:38:00,62.9,56.6,29.75,ESE,122,0.0,0.0,80,0.00,,,0.02,0,Wunderground v.1.15,2013-05-11 05:38:00,
2013-05-11 01:43:00,62.4,56.5,29.75,ESE,122,0.0,0.0,81,0.12,,,0.03,0,Wunderground v.1.15,2013-05-11 05:43:00,
2013-05-11 01:48:00,62.1,56.5,29.75,ESE,122,0.0,2.0,82,0.20,,,0.05,0,Wunderground v.1.15,2013-05-11 05:48:00,
2013-05-11 01:53:00,61.6,56.7,29.75,SSE,153,0.0,2.0,84,0.08,,,0.05,0,Wunderground v.1.15,2013-05-11 05:53:00,
2013-05-11 01:59:00,61.3,56.8,29.75,SSE,153,0.0,2.0,85,0.07,,,0.06,0,Wunderground v.1.15,2013-05-11 05:59:00,
2013-05-11 02:04:00,60.9,56.7,29.74,SSE,153,0.0,1.0,86,0.07,,,0.07,0,Wunderground v.1.15,2013-05-11 06:04:00,
2013-05-11 02:10:00,60.9,57.0,29.74,SSE,156,0.0,0.0,87,0.35,,,0.09,0,Wunderground v.1.15,2013-05-11 06:10:00,
2013-05-11 02:15:00,60.7,57.1,29.73,SSE,158,0.0,0.0,88,0.11,,,0.09,0,Wunderground v.1.15,2013-05-11 06:15:00,
2013-05-11 02:20:00,60.7,57.4,29.73,SSE,158,0.0,0.0,89,0.06,,,0.09,0,Wunderground v.1.15,2013-05-11 06:20:00,
2013-05-11 02:25:00,60.7,57.4,29.73,SSE,158,0.0,0.0,89,0.05,,,0.10,0,Wunderground v.1.15,2013-05-11 06:25:00,
2013-05-11 02:30:00,60.5,57.2,29.72,SSE,158,0.0,0.0,89,0.08,,,0.11,0,Wunderground v.1.15,2013-05-11 06:30:00,
2013-05-11 02:36:00,60.5,57.6,29.72,SSE,158,0.0,0.0,90,0.08,,,0.11,0,Wunderground v.1.15,2013-05-11 06:36:00,
2013-05-11 02:42:00,60.5,57.6,29.72,SSE,158,0.0,1.0,90,0.05,,,0.11,0,Wunderground v.1.15,2013-05-11 06:42:00,
2013-05-11 02:47:00,60.5,57.6,29.72,SSE,167,0.0,1.0,90,0.00,,,0.11,0,Wunderground v.1.15,2013-05-11 06:47:00,
2013-05-11 02:53:00,60.5,57.6,29.72,South,172,0.0,4.0,90,0.00,,,0.11,0,Wunderground v.1.15,2013-05-11 06:53:00,
2013-05-11 02:58:00,60.5,57.9,29.72,South,181,0.0,4.0,91,0.00,,,0.11,0,Wunderground v.1.15,2013-05-11 06:58:00,
2013-05-11 03:03:00,60.5,57.9,29.71,South,181,0.0,0.0,91,0.00,,,0.11,0,Wunderground v.1.15,2013-05-11 07:03:00,
2013-05-11 03:09:00,60.4,57.8,29.71,South,181,0.0,0.0,91,0.00,,,0.11,0,Wunderground v.1.15,2013-05-11 07:09:00,
2013-05-11 03:15:00,60.4,57.8,29.70,SSW,198,0.0,0.0,91,0.00,,,0.11,0,Wunderground v.1.15,2013-05-11 07:15:00,
2013-05-11 03:20:00,60.2,57.6,29.70,SSW,198,0.0,0.0,91,0.00,,,0.12,0,Wunderground v.1.15,2013-05-11 07:20:00,
2013-05-11 03:26:00,60.2,57.6,29.70,SSW,198,0.0,0.0,91,0.00,,,0.12,0,Wunderground v.1.15,2013-05-11 07:26:00,
2013-05-11 03:31:00,60.2,57.6,29.70,SW,217,0.0,0.0,91,0.00,,,0.12,0,Wunderground v.1.15,2013-05-11 07:31:00,
2013-05-11 03:37:00,60.2,57.6,29.70,SW,217,0.0,0.0,91,0.00,,,0.12,0,Wunderground v.1.15,2013-05-11 07:37:00,
2013-05-11 03:42:00,60.2,57.6,29.70,SW,217,0.0,0.0,91,0.00,,,0.12,0,Wunderground v.1.15,2013-05-11 07:42:00,
2013-05-11 03:48:00,60.2,57.6,29.69,SSE,154,0.0,0.0,91,0.00,,,0.13,0,Wunderground v.1.15,2013-05-11 07:48:00,
2013-05-11 03:53:00,60.2,57.6,29.69,SSE,154,0.0,0.0,91,0.00,,,0.13,0,Wunderground v.1.15,2013-05-11 07:53:00,
2013-05-11 03:59:00,60.2,57.6,29.69,SSE,154,0.0,0.0,91,0.00,,,0.13,0,Wunderground v.1.15,2013-05-11 07:59:00,
2013-05-11 04:04:00,60.2,57.6,29.67,SSE,154,0.0,0.0,91,0.00,,,0.13,0,Wunderground v.1.15,2013-05-11 08:04:00,
2013-05-11 04:10:00,60.1,57.8,29.67,SSE,154,0.0,0.0,92,0.00,,,0.14,0,Wunderground v.1.15,2013-05-11 08:10:00,
2013-05-11 04:15:00,60.1,57.8,29.68,SSE,154,0.0,2.0,92,0.00,,,0.14,0,Wunderground v.1.15,2013-05-11 08:15:00,
2013-05-11 04:21:00,60.1,57.8,29.68,SSE,154,0.0,0.0,92,0.06,,,0.15,0,Wunderground v.1.15,2013-05-11 08:21:00,
2013-05-11 04:27:00,59.9,57.6,29.68,SSE,154,0.0,0.0,92,0.06,,,0.15,0,Wunderground v.1.15,2013-05-11 08:27:00,
2013-05-11 04:32:00,59.9,57.6,29.67,SSE,155,0.0,0.0,92,0.04,,,0.15,0,Wunderground v.1.15,2013-05-11 08:32:00,
2013-05-11 04:38:00,59.9,57.6,29.67,SSE,155,0.0,0.0,92,0.04,,,0.16,0,Wunderground v.1.15,2013-05-11 08:38:00,
2013-05-11 04:43:00,59.8,57.5,29.67,SSE,155,0.0,1.0,92,0.07,,,0.17,0,Wunderground v.1.15,2013-05-11 08:43:00,
2013-05-11 04:48:00,59.8,57.5,29.67,SSE,155,0.0,1.0,92,0.07,,,0.17,0,Wunderground v.1.15,2013-05-11 08:48:00,
2013-05-11 04:54:00,59.8,57.5,29.67,NE,44,1.0,4.0,92,0.05,,,0.17,0,Wunderground v.1.15,2013-05-11 08:54:00,
2013-05-11 05:00:00,59.8,57.5,29.66,South,189,0.0,0.0,92,0.00,,,0.17,0,Wunderground v.1.15,2013-05-11 09:00:00,
2013-05-11 05:06:00,59.8,57.5,29.66,South,180,0.0,0.0,92,0.00,,,0.18,0,Wunderground v.1.15,2013-05-11 09:06:00,
2013-05-11 05:11:00,59.8,57.5,29.66,SSE,152,0.0,0.0,92,0.00,,,0.18,0,Wunderground v.1.15,2013-05-11 09:11:00,
2013-05-11 05:17:00,59.8,57.5,29.66,South,185,0.0,0.0,92,0.04,,,0.19,0,Wunderground v.1.15,2013-05-11 09:17:00,
2013-05-11 05:22:00,59.8,57.5,29.66,South,185,0.0,0.0,92,0.04,,,0.19,0,Wunderground v.1.15,2013-05-11 09:22:00,
2013-05-11 05:28:00,59.8,57.5,29.66,SE,145,0.0,0.0,92,0.04,,,0.19,0,Wunderground v.1.15,2013-05-11 09:28:00,
2013-05-11 05:33:00,59.8,57.5,29.65,SE,146,0.0,0.0,92,0.05,,,0.20,0,Wunderground v.1.15,2013-05-11 09:33:00,
2013-05-11 05:39:00,59.8,57.5,29.65,SE,139,0.0,1.0,92,0.08,,,0.21,0,Wunderground v.1.15,2013-05-11 09:39:00,
2013-05-11 05:44:00,59.8,57.5,29.65,SSE,148,1.0,7.0,92,0.08,,,0.21,0,Wunderground v.1.15,2013-05-11 09:44:00,
2013-05-11 05:49:00,59.6,57.3,29.65,East,82,1.0,7.0,92,0.05,,,0.21,0,Wunderground v.1.15,2013-05-11 09:49:00,
2013-05-11 05:55:00,59.6,57.3,29.65,SE,136,0.0,1.0,92,0.05,,,0.22,0,Wunderground v.1.15,2013-05-11 09:55:00,
2013-05-11 06:01:00,59.6,57.3,29.65,SE,141,0.0,0.0,92,0.08,,,0.23,7,Wunderground v.1.15,2013-05-11 10:01:00,
2013-05-11 06:06:00,59.6,57.3,29.65,West,261,0.0,2.0,92,0.08,,,0.24,12,Wunderground v.1.15,2013-05-11 10:06:00,
2013-05-11 06:11:00,59.6,57.3,29.65,NE,49,0.0,3.0,92,0.09,,,0.25,7,Wunderground v.1.15,2013-05-11 10:11:00,
2013-05-11 06:16:00,59.6,57.3,29.65,NNE,25,0.0,3.0,92,0.09,,,0.25,14,Wunderground v.1.15,2013-05-11 10:16:00,
2013-05-11 06:21:00,59.6,57.6,29.65,SW,218,0.0,0.0,93,0.06,,,0.25,14,Wunderground v.1.15,2013-05-11 10:21:00,
2013-05-11 06:27:00,59.6,57.6,29.65,SW,218,0.0,0.0,93,0.04,,,0.25,21,Wunderground v.1.15,2013-05-11 10:27:00,
2013-05-11 06:32:00,59.6,57.6,29.65,SW,216,0.0,0.0,93,0.00,,,0.25,25,Wunderground v.1.15,2013-05-11 10:32:00,
2013-05-11 06:38:00,59.6,57.6,29.65,SW,216,0.0,0.0,93,0.00,,,0.26,32,Wunderground v.1.15,2013-05-11 10:38:00,
2013-05-11 06:44:00,59.8,57.8,29.65,SSW,207,0.0,1.0,93,0.00,,,0.26,30,Wunderground v.1.15,2013-05-11 10:44:00,
2013-05-11 06:49:00,59.8,57.8,29.64,SSE,165,0.0,1.0,93,0.00,,,0.26,33,Wunderground v.1.15,2013-05-11 10:49:00,
2013-05-11 06:54:00,59.8,57.8,29.64,SSE,165,0.0,0.0,93,0.00,,,0.26,23,Wunderground v.1.15,2013-05-11 10:54:00,
2013-05-11 06:59:00,59.8,57.8,29.64,SSE,165,0.0,0.0,93,0.00,,,0.26,28,Wunderground v.1.15,2013-05-11 10:59:00,
2013-05-11 07:06:00,59.8,57.8,29.64,SSE,165,0.0,0.0,93,0.00,,,0.26,47,Wunderground v.1.15,2013-05-11 11:06:00,
2013-05-11 07:11:00,59.8,57.8,29.64,SSW,206,0.0,1.0,93,0.00,,,0.26,46,Wunderground v.1.15,2013-05-11 11:11:00,
2013-05-11 07:16:00,59.8,57.8,29.64,SSW,206,0.0,1.0,93,0.00,,,0.26,28,Wunderground v.1.15,2013-05-11 11:16:00,
2013-05-11 07:21:00,59.8,57.8,29.64,South,188,0.0,0.0,93,0.00,,,0.26,32,Wunderground v.1.15,2013-05-11 11:21:00,
2013-05-11 07:27:00,59.8,57.8,29.64,SSW,212,1.0,1.0,93,0.00,,,0.26,28,Wunderground v.1.15,2013-05-11 11:27:00,
2013-05-11 07:32:00,59.8,57.8,29.64,ENE,74,0.0,0.0,93,0.00,,,0.26,33,Wunderground v.1.15,2013-05-11 11:32:00,
2013-05-11 07:37:00,59.8,57.8,29.64,SSW,207,0.0,0.0,93,0.00,,,0.26,30,Wunderground v.1.15,2013-05-11 11:37:00,
2013-05-11 07:43:00,59.8,57.8,29.64,SE,137,0.0,1.0,93,0.00,,,0.26,39,Wunderground v.1.15,2013-05-11 11:43:00,
2013-05-11 07:49:00,59.9,57.9,29.64,SE,141,0.0,1.0,93,0.00,,,0.26,39,Wunderground v.1.15,2013-05-11 11:49:00,
2013-05-11 07:54:00,59.9,57.9,29.64,SE,131,0.0,4.0,93,0.00,,,0.26,40,Wunderground v.1.15,2013-05-11 11:54:00,
2013-05-11 08:00:00,59.9,57.9,29.63,SSE,148,0.0,0.0,93,0.00,,,0.26,33,Wunderground v.1.15,2013-05-11 12:00:00,
2013-05-11 08:06:00,60.1,58.1,29.63,SE,134,1.0,2.0,93,0.00,,,0.26,33,Wunderground v.1.15,2013-05-11 12:06:00,
2013-05-11 08:11:00,60.1,58.1,29.63,ESE,122,1.0,3.0,93,0.00,,,0.26,30,Wunderground v.1.15,2013-05-11 12:11:00,
2013-05-11 08:16:00,60.2,58.2,29.64,SE,144,0.0,3.0,93,0.00,,,0.26,32,Wunderground v.1.15,2013-05-11 12:16:00,
2013-05-11 08:22:00,60.2,58.2,29.64,SSW,195,0.0,0.0,93,0.00,,,0.26,47,Wunderground v.1.15,2013-05-11 12:22:00,
2013-05-11 08:27:00,60.4,58.1,29.64,SSE,155,1.0,3.0,92,0.00,,,0.26,100,Wunderground v.1.15,2013-05-11 12:27:00,
2013-05-11 08:33:00,60.5,58.5,29.63,SE,142,1.0,2.0,93,0.00,,,0.26,132,Wunderground v.1.15,2013-05-11 12:33:00,
2013-05-11 08:38:00,60.7,58.4,29.63,South,179,0.0,2.0,92,0.00,,,0.26,142,Wunderground v.1.15,2013-05-11 12:38:00,
2013-05-11 08:43:00,61.0,58.7,29.63,South,174,0.0,0.0,92,0.00,,,0.26,102,Wunderground v.1.15,2013-05-11 12:43:00,
2013-05-11 08:49:00,61.0,58.7,29.64,SSW,204,1.0,3.0,92,0.00,,,0.26,51,Wunderground v.1.15,2013-05-11 12:49:00,
2013-05-11 08:54:00,61.0,58.7,29.64,SSE,167,1.0,1.0,92,0.00,,,0.26,56,Wunderground v.1.15,2013-05-11 12:54:00,
2013-05-11 09:00:00,61.2,58.9,29.63,ENE,66,1.0,1.0,92,0.00,,,0.26,116,Wunderground v.1.15,2013-05-11 13:00:00,
2013-05-11 09:06:00,61.3,59.0,29.63,SW,233,0.0,1.0,92,0.00,,,0.26,104,Wunderground v.1.15,2013-05-11 13:06:00,
2013-05-11 09:11:00,61.5,59.2,29.63,ESE,115,0.0,0.0,92,0.00,,,0.26,244,Wunderground v.1.15,2013-05-11 13:11:00,
2013-05-11 09:16:00,62.1,59.7,29.63,ESE,120,0.0,1.0,92,0.00,,,0.26,274,Wunderground v.1.15,2013-05-11 13:16:00,
2013-05-11 09:22:00,62.6,59.9,29.63,ESE,117,0.0,1.0,91,0.00,,,0.26,188,Wunderground v.1.15,2013-05-11 13:22:00,
2013-05-11 09:28:00,62.6,59.6,29.63,SE,136,1.0,1.0,90,0.00,,,0.26,200,Wunderground v.1.15,2013-05-11 13:28:00,
2013-05-11 09:33:00,62.7,59.4,29.63,South,178,1.0,1.0,89,0.00,,,0.26,236,Wunderground v.1.15,2013-05-11 13:33:00,
2013-05-11 09:39:00,63.2,59.9,29.63,South,179,1.0,2.0,89,0.00,,,0.26,265,Wunderground v.1.15,2013-05-11 13:39:00,
2013-05-11 09:44:00,64.0,61.0,29.63,East,84,0.0,1.0,90,0.00,,,0.26,385,Wunderground v.1.15,2013-05-11 13:44:00,
2013-05-11 09:49:00,64.3,60.7,29.63,SE,145,0.0,1.0,88,0.00,,,0.26,250,Wunderground v.1.15,2013-05-11 13:49:00,
2013-05-11 09:55:00,64.7,61.1,29.63,SE,145,0.0,0.0,88,0.00,,,0.26,246,Wunderground v.1.15,2013-05-11 13:55:00,
2013-05-11 10:01:00,64.7,60.4,29.62,North,358,0.0,4.0,86,0.00,,,0.26,260,Wunderground v.1.15,2013-05-11 14:01:00,
2013-05-11 10:07:00,64.7,60.4,29.62,SE,146,1.0,4.0,86,0.00,,,0.26,171,Wunderground v.1.15,2013-05-11 14:07:00,
2013-05-11 10:13:00,64.5,59.9,29.62,NE,34,0.0,1.0,85,0.00,,,0.26,246,Wunderground v.1.15,2013-05-11 14:13:00,
2013-05-11 10:18:00,64.3,59.4,29.62,ENE,71,1.0,4.0,84,0.00,,,0.26,338,Wunderground v.1.15,2013-05-11 14:18:00,
2013-05-11 10:23:00,64.7,60.1,29.62,ESE,121,1.0,1.0,85,0.00,,,0.26,241,Wunderground v.1.15,2013-05-11 14:23:00,
2013-05-11 10:29:00,64.5,59.6,29.62,SSW,198,0.0,5.0,84,0.00,,,0.26,114,Wunderground v.1.15,2013-05-11 14:29:00,
2013-05-11 10:34:00,64.3,59.4,29.63,SSW,195,0.0,1.0,84,0.00,,,0.26,186,Wunderground v.1.15,2013-05-11 14:34:00,
2013-05-11 10:40:00,64.3,59.4,29.63,North,358,1.0,1.0,84,0.00,,,0.26,206,Wunderground v.1.15,2013-05-11 14:40:00,
2013-05-11 10:45:00,64.5,59.6,29.61,South,174,1.0,4.0,84,0.00,,,0.26,304,Wunderground v.1.15,2013-05-11 14:45:00,
2013-05-11 10:51:00,65.0,60.0,29.61,East,88,1.0,1.0,84,0.00,,,0.26,353,Wunderground v.1.15,2013-05-11 14:51:00,
2013-05-11 10:56:00,65.3,60.3,29.61,SE,141,0.0,7.0,84,0.00,,,0.26,309,Wunderground v.1.15,2013-05-11 14:56:00,
2013-05-11 11:01:00,65.5,60.2,29.61,East,91,0.0,2.0,83,0.00,,,0.26,346,Wunderground v.1.15,2013-05-11 15:01:00,
2013-05-11 11:07:00,65.6,60.3,29.61,ESE,120,0.0,2.0,83,0.00,,,0.26,209,Wunderground v.1.15,2013-05-11 15:07:00,
2013-05-11 11:13:00,65.5,59.9,29.61,SE,135,0.0,0.0,82,0.00,,,0.26,221,Wunderground v.1.15,2013-05-11 15:13:00,
2013-05-11 11:18:00,65.6,60.0,29.61,SE,132,0.0,2.0,82,0.00,,,0.26,341,Wunderground v.1.15,2013-05-11 15:18:00,
2013-05-11 11:23:00,65.8,59.8,29.61,East,94,0.0,0.0,81,0.00,,,0.26,229,Wunderground v.1.15,2013-05-11 15:23:00,
2013-05-11 11:28:00,66.0,60.3,29.61,SSW,208,0.0,0.0,82,0.00,,,0.26,264,Wunderground v.1.15,2013-05-11 15:28:00,
2013-05-11 11:34:00,66.1,60.4,29.60,NE,37,0.0,2.0,82,0.00,,,0.26,396,Wunderground v.1.15,2013-05-11 15:34:00,
2013-05-11 11:40:00,67.3,61.3,29.60,South,179,1.0,1.0,81,0.00,,,0.26,285,Wunderground v.1.15,2013-05-11 15:40:00,
2013-05-11 11:45:00,67.6,60.9,29.60,SE,133,1.0,3.0,79,0.00,,,0.26,257,Wunderground v.1.15,2013-05-11 15:45:00,
2013-05-11 11:50:00,67.4,60.3,29.60,West,267,0.0,0.0,78,0.00,,,0.26,214,Wunderground v.1.15,2013-05-11 15:50:00,
2013-05-11 11:56:00,67.1,60.0,29.60,NE,34,0.0,2.0,78,0.00,,,0.26,209,Wunderground v.1.15,2013-05-11 15:56:00,
2013-05-11 12:01:00,66.9,60.2,29.60,ENE,71,0.0,0.0,79,0.00,,,0.26,311,Wunderground v.1.15,2013-05-11 16:01:00,
2013-05-11 12:07:00,66.9,60.2,29.60,North,0,0.0,1.0,79,0.00,,,0.26,139,Wunderground v.1.15,2013-05-11 16:07:00,
2013-05-11 12:12:00,66.8,59.7,29.60,SE,124,0.0,4.0,78,0.00,,,0.26,204,Wunderground v.1.15,2013-05-11 16:12:00,
2013-05-11 12:18:00,66.6,59.5,29.60,SE,124,1.0,4.0,78,0.00,,,0.26,151,Wunderground v.1.15,2013-05-11 16:18:00,
2013-05-11 12:23:00,66.3,59.6,29.60,SSE,150,0.0,1.0,79,0.00,,,0.26,287,Wunderground v.1.15,2013-05-11 16:23:00,
2013-05-11 12:29:00,66.3,59.9,29.60,SSE,163,0.0,1.0,80,0.00,,,0.26,380,Wunderground v.1.15,2013-05-11 16:29:00,
2013-05-11 12:34:00,66.6,60.2,29.59,NE,44,0.0,1.0,80,0.00,,,0.26,401,Wunderground v.1.15,2013-05-11 16:34:00,
2013-05-11 12:40:00,66.9,60.2,29.59,SE,124,1.0,1.0,79,0.00,,,0.26,290,Wunderground v.1.15,2013-05-11 16:40:00,
2013-05-11 12:45:00,66.9,59.5,29.59,SSE,154,0.0,3.0,77,0.00,,,0.26,258,Wunderground v.1.15,2013-05-11 16:45:00,
2013-05-11 12:51:00,66.9,59.8,29.59,WSW,257,0.0,6.0,78,0.00,,,0.26,223,Wunderground v.1.15,2013-05-11 16:51:00,
2013-05-11 12:57:00,66.9,59.8,29.59,SSW,210,0.0,6.0,78,0.00,,,0.26,171,Wunderground v.1.15,2013-05-11 16:57:00,
2013-05-11 13:02:00,66.8,60.1,29.59,South,180,0.0,0.0,79,0.00,,,0.26,156,Wunderground v.1.15,2013-05-11 17:02:00,
2013-05-11 13:07:00,66.4,59.3,29.59,WSW,243,0.0,0.0,78,0.00,,,0.26,120,Wunderground v.1.15,2013-05-11 17:07:00,
2013-05-11 13:13:00,66.1,59.4,29.59,North,0,1.0,6.0,79,0.00,,,0.26,56,Wunderground v.1.15,2013-05-11 17:13:00,
2013-05-11 13:19:00,65.8,59.8,29.59,SW,234,1.0,6.0,81,0.00,,,0.26,134,Wunderground v.1.15,2013-05-11 17:19:00,
2013-05-11 13:24:00,65.8,60.2,29.59,South,175,0.0,3.0,82,0.00,,,0.26,200,Wunderground v.1.15,2013-05-11 17:24:00,
2013-05-11 13:29:00,65.8,60.2,29.59,SE,131,0.0,3.0,82,0.00,,,0.26,211,Wunderground v.1.15,2013-05-11 17:29:00,
2013-05-11 13:35:00,66.0,60.7,29.59,SE,137,0.0,2.0,83,0.00,,,0.26,214,Wunderground v.1.15,2013-05-11 17:35:00,
2013-05-11 13:40:00,66.0,61.0,29.59,SSE,148,0.0,0.0,84,0.00,,,0.26,171,Wunderground v.1.15,2013-05-11 17:40:00,
2013-05-11 13:46:00,65.8,60.5,29.59,South,169,0.0,2.0,83,0.00,,,0.26,197,Wunderground v.1.15,2013-05-11 17:46:00,
2013-05-11 13:51:00,65.8,60.8,29.59,SSE,160,0.0,0.0,84,0.00,,,0.26,223,Wunderground v.1.15,2013-05-11 17:51:00,
2013-05-11 13:57:00,66.0,61.0,29.59,SSE,160,0.0,0.0,84,0.00,,,0.26,264,Wunderground v.1.15,2013-05-11 17:57:00,
2013-05-11 14:02:00,66.3,61.3,29.59,East,88,0.0,3.0,84,0.00,,,0.27,255,Wunderground v.1.15,2013-05-11 18:02:00,
2013-05-11 14:08:00,66.4,61.4,29.59,East,89,0.0,3.0,84,0.00,,,0.27,425,Wunderground v.1.15,2013-05-11 18:08:00,
2013-05-11 14:13:00,67.1,62.8,29.59,SE,132,0.0,0.0,86,0.00,,,0.27,548,Wunderground v.1.15,2013-05-11 18:13:00,
2013-05-11 14:18:00,68.4,63.4,29.58,East,87,1.0,2.0,84,0.00,,,0.27,823,Wunderground v.1.15,2013-05-11 18:18:00,
2013-05-11 14:23:00,69.1,63.4,29.58,ENE,61,1.0,2.0,82,0.00,,,0.27,884,Wunderground v.1.15,2013-05-11 18:23:00,
2013-05-11 14:29:00,69.4,62.6,29.58,East,83,0.0,2.0,79,0.00,,,0.27,454,Wunderground v.1.15,2013-05-11 18:29:00,
2013-05-11 14:34:00,69.6,62.4,29.58,North,358,1.0,1.0,78,0.00,,,0.27,381,Wunderground v.1.15,2013-05-11 18:34:00,
2013-05-11 14:39:00,69.6,61.7,29.58,NNW,345,1.0,1.0,76,0.00,,,0.27,399,Wunderground v.1.15,2013-05-11 18:39:00,
2013-05-11 14:45:00,69.1,61.2,29.58,East,95,0.0,3.0,76,0.00,,,0.27,281,Wunderground v.1.15,2013-05-11 18:45:00,
2013-05-11 14:50:00,68.9,61.4,29.58,ENE,73,0.0,0.0,77,0.00,,,0.27,239,Wunderground v.1.15,2013-05-11 18:50:00,
2013-05-11 14:56:00,69.1,61.9,29.58,SE,129,0.0,0.0,78,0.00,,,0.27,499,Wunderground v.1.15,2013-05-11 18:56:00,
2013-05-11 15:02:00,69.3,61.8,29.57,SE,124,0.0,0.0,77,0.00,,,0.27,345,Wunderground v.1.15,2013-05-11 19:02:00,
2013-05-11 15:07:00,69.3,61.0,29.57,SSE,167,0.0,0.0,75,0.00,,,0.27,360,Wunderground v.1.15,2013-05-11 19:07:00,
2013-05-11 15:12:00,69.6,61.3,29.57,NE,44,0.0,0.0,75,0.00,,,0.27,411,Wunderground v.1.15,2013-05-11 19:12:00,
2013-05-11 15:18:00,69.6,61.3,29.56,SSW,199,1.0,1.0,75,0.00,,,0.27,533,Wunderground v.1.15,2013-05-11 19:18:00,
2013-05-11 15:23:00,69.9,61.2,29.56,SE,124,0.0,0.0,74,0.00,,,0.27,287,Wunderground v.1.15,2013-05-11 19:23:00,
2013-05-11 15:29:00,69.8,60.8,29.56,ESE,119,0.0,1.0,73,0.00,,,0.27,141,Wunderground v.1.15,2013-05-11 19:29:00,
2013-05-11 15:34:00,69.3,59.9,29.56,SE,139,0.0,0.0,72,0.00,,,0.27,58,Wunderground v.1.15,2013-05-11 19:34:00,
2013-05-11 15:40:00,68.6,60.0,29.56,SSW,210,0.0,0.0,74,0.00,,,0.27,42,Wunderground v.1.15,2013-05-11 19:40:00,
2013-05-11 15:45:00,68.1,60.2,29.57,ENE,68,0.0,1.0,76,0.00,,,0.27,88,Wunderground v.1.15,2013-05-11 19:45:00,
2013-05-11 15:50:00,67.6,59.8,29.57,SSE,153,0.0,0.0,76,0.00,,,0.27,58,Wunderground v.1.15,2013-05-11 19:50:00,
2013-05-11 15:56:00,67.4,59.6,29.57,SE,146,0.0,3.0,76,0.00,,,0.27,58,Wunderground v.1.15,2013-05-11 19:56:00,
2013-05-11 16:01:00,67.1,60.4,29.57,SE,142,0.0,0.0,79,0.00,,,0.27,70,Wunderground v.1.15,2013-05-11 20:01:00,
2013-05-11 16:07:00,66.9,60.5,29.57,SE,144,0.0,0.0,80,0.00,,,0.27,111,Wunderground v.1.15,2013-05-11 20:07:00,
2013-05-11 16:12:00,66.8,60.8,29.57,SE,144,0.0,0.0,81,0.00,,,0.27,192,Wunderground v.1.15,2013-05-11 20:12:00,
2013-05-11 16:18:00,66.8,61.1,29.57,SSE,155,0.0,0.0,82,0.00,,,0.27,269,Wunderground v.1.15,2013-05-11 20:18:00,
2013-05-11 16:23:00,66.9,61.2,29.57,SSE,155,0.0,0.0,82,0.00,,,0.27,163,Wunderground v.1.15,2013-05-11 20:23:00,
2013-05-11 16:28:00,67.1,61.1,29.57,SSE,154,0.0,2.0,81,0.00,,,0.27,142,Wunderground v.1.15,2013-05-11 20:28:00,
2013-05-11 16:34:00,67.3,61.3,29.58,SSE,155,0.0,0.0,81,0.00,,,0.27,171,Wunderground v.1.15,2013-05-11 20:34:00,
2013-05-11 16:39:00,67.4,61.4,29.58,SSE,155,0.0,0.0,81,0.00,,,0.27,144,Wunderground v.1.15,2013-05-11 20:39:00,
2013-05-11 16:45:00,67.4,61.0,29.58,SSE,155,0.0,0.0,80,0.00,,,0.27,153,Wunderground v.1.15,2013-05-11 20:45:00,
2013-05-11 16:50:00,67.3,60.9,29.58,SW,219,0.0,0.0,80,0.00,,,0.27,160,Wunderground v.1.15,2013-05-11 20:50:00,
2013-05-11 16:55:00,67.3,60.9,29.58,SW,219,0.0,0.0,80,0.00,,,0.27,193,Wunderground v.1.15,2013-05-11 20:55:00,
2013-05-11 17:01:00,67.3,60.9,29.58,SW,219,0.0,0.0,80,0.00,,,0.27,218,Wunderground v.1.15,2013-05-11 21:01:00,
2013-05-11 17:07:00,67.6,61.2,29.58,SSE,153,0.0,0.0,80,0.00,,,0.27,169,Wunderground v.1.15,2013-05-11 21:07:00,
2013-05-11 17:13:00,67.6,61.2,29.58,SSE,153,0.0,0.0,80,0.00,,,0.27,160,Wunderground v.1.15,2013-05-11 21:13:00,
2013-05-11 17:19:00,67.8,61.4,29.58,SSW,202,0.0,0.0,80,0.00,,,0.27,209,Wunderground v.1.15,2013-05-11 21:19:00,
2013-05-11 17:24:00,67.9,61.1,29.58,SSW,202,0.0,0.0,79,0.00,,,0.27,214,Wunderground v.1.15,2013-05-11 21:24:00,
2013-05-11 17:29:00,68.1,61.3,29.58,SSW,202,0.0,0.0,79,0.00,,,0.27,199,Wunderground v.1.15,2013-05-11 21:29:00,
2013-05-11 17:35:00,68.3,61.5,29.58,SSE,168,0.0,1.0,79,0.00,,,0.27,151,Wunderground v.1.15,2013-05-11 21:35:00,
2013-05-11 17:40:00,68.4,61.3,29.58,SSE,168,0.0,0.0,78,0.00,,,0.27,116,Wunderground v.1.15,2013-05-11 21:40:00,
2013-05-11 17:46:00,68.3,61.5,29.58,South,183,0.0,0.0,79,0.00,,,0.27,128,Wunderground v.1.15,2013-05-11 21:46:00,
2013-05-11 17:52:00,67.6,59.0,29.58,South,183,0.0,1.0,74,0.00,,,0.27,118,Wunderground v.1.15,2013-05-11 21:52:00,
2013-05-11 17:57:00,67.4,59.6,29.58,South,191,0.0,1.0,76,0.00,,,0.27,165,Wunderground v.1.15,2013-05-11 21:57:00,
2013-05-11 18:02:00,67.1,57.4,29.59,North,358,0.0,0.0,71,0.00,,,0.27,142,Wunderground v.1.15,2013-05-11 22:02:00,
2013-05-11 18:08:00,67.6,59.4,29.59,NE,56,0.0,0.0,75,0.00,,,0.27,113,Wunderground v.1.15,2013-05-11 22:08:00,
2013-05-11 18:14:00,67.1,55.4,29.59,NNE,13,0.0,0.0,66,0.00,,,0.27,107,Wunderground v.1.15,2013-05-11 22:14:00,
2013-05-11 18:19:00,67.8,56.0,29.59,North,0,0.0,0.0,66,0.00,,,0.27,93,Wunderground v.1.15,2013-05-11 22:19:00,
2013-05-11 18:25:00,67.9,55.7,29.59,NE,45,0.0,0.0,65,0.00,,,0.27,91,Wunderground v.1.15,2013-05-11 22:25:00,
2013-05-11 18:30:00,68.1,57.9,29.60,NE,45,0.0,0.0,70,0.00,,,0.27,86,Wunderground v.1.15,2013-05-11 22:30:00,
2013-05-11 18:36:00,68.9,57.9,29.60,NE,45,0.0,0.0,68,0.00,,,0.27,88,Wunderground v.1.15,2013-05-11 22:36:00,
2013-05-11 18:41:00,70.1,58.2,29.60,NE,45,0.0,0.0,66,0.00,,,0.27,74,Wunderground v.1.15,2013-05-11 22:41:00,
2013-05-11 18:47:00,70.8,58.0,29.61,NE,45,0.0,0.0,64,0.00,,,0.27,76,Wunderground v.1.15,2013-05-11 22:47:00,
2013-05-11 18:52:00,71.5,57.8,29.61,NE,45,0.0,0.0,62,0.00,,,0.27,77,Wunderground v.1.15,2013-05-11 22:52:00,
2013-05-11 18:58:00,71.5,56.4,29.61,NE,37,0.0,0.0,59,0.00,,,0.27,46,Wunderground v.1.15,2013-05-11 22:58:00,
2013-05-11 19:04:00,70.4,57.2,29.61,NE,37,0.0,0.0,63,0.00,,,0.27,42,Wunderground v.1.15,2013-05-11 23:04:00,
2013-05-11 19:09:00,69.6,57.3,29.61,NE,37,0.0,0.0,65,0.00,,,0.27,49,Wunderground v.1.15,2013-05-11 23:09:00,
2013-05-11 19:14:00,69.8,56.2,29.61,NE,37,0.0,0.0,62,0.00,,,0.27,46,Wunderground v.1.15,2013-05-11 23:14:00,
2013-05-11 19:20:00,69.6,56.9,29.61,NNE,32,0.0,0.0,64,0.00,,,0.27,37,Wunderground v.1.15,2013-05-11 23:20:00,
2013-05-11 19:25:00,69.1,55.1,29.61,NNE,32,0.0,0.0,61,0.00,,,0.27,25,Wunderground v.1.15,2013-05-11 23:25:00,
2013-05-11 19:31:00,68.1,55.9,29.62,NNE,32,0.0,0.0,65,0.00,,,0.27,18,Wunderground v.1.15,2013-05-11 23:31:00,
2013-05-11 19:37:00,66.8,55.9,29.62,NNE,32,0.0,0.0,68,0.00,,,0.27,12,Wunderground v.1.15,2013-05-11 23:37:00,
2013-05-11 19:42:00,65.6,54.8,29.62,NNE,32,0.0,0.0,68,0.00,,,0.27,11,Wunderground v.1.15,2013-05-11 23:42:00,
2013-05-11 19:47:00,64.8,54.4,29.63,NNE,32,0.0,0.0,69,0.00,,,0.27,9,Wunderground v.1.15,2013-05-11 23:47:00,
2013-05-11 19:52:00,64.0,53.6,29.63,NNE,32,0.0,0.0,69,0.00,,,0.27,7,Wunderground v.1.15,2013-05-11 23:52:00,
2013-05-11 19:58:00,63.2,52.9,29.63,NNE,32,0.0,0.0,69,0.00,,,0.27,5,Wunderground v.1.15,2013-05-11 23:58:00,
2013-05-11 20:04:00,62.6,52.3,29.63,NNE,32,0.0,0.0,69,0.00,,,0.27,5,Wunderground v.1.15,2013-05-12 00:04:00,
2013-05-11 20:10:00,62.0,52.1,29.63,NNE,32,0.0,0.0,70,0.00,,,0.27,0,Wunderground v.1.15,2013-05-12 00:10:00,
2013-05-11 20:15:00,61.5,52.0,29.64,NNE,32,0.0,0.0,71,0.00,,,0.27,0,Wunderground v.1.15,2013-05-12 00:15:00,
2013-05-11 20:21:00,61.0,51.5,29.64,NNE,32,0.0,0.0,71,0.00,,,0.27,0,Wunderground v.1.15,2013-05-12 00:21:00,
2013-05-11 20:26:00,60.5,51.8,29.64,NNE,32,0.0,0.0,73,0.00,,,0.27,0,Wunderground v.1.15,2013-05-12 00:26:00,
2013-05-11 20:32:00,60.1,51.8,29.65,NNE,32,0.0,0.0,74,0.00,,,0.27,0,Wunderground v.1.15,2013-05-12 00:32:00,
2013-05-11 20:38:00,59.9,52.0,29.65,NNE,32,0.0,2.0,75,0.00,,,0.27,0,Wunderground v.1.15,2013-05-12 00:38:00,
2013-05-11 20:43:00,59.9,52.3,29.65,NNE,32,0.0,0.0,76,0.00,,,0.27,0,Wunderground v.1.15,2013-05-12 00:43:00,
2013-05-11 20:49:00,59.8,52.2,29.66,NNE,32,0.0,0.0,76,0.00,,,0.27,0,Wunderground v.1.15,2013-05-12 00:49:00,
2013-05-11 20:54:00,59.6,52.0,29.66,NNE,32,0.0,0.0,76,0.00,,,0.27,0,Wunderground v.1.15,2013-05-12 00:54:00,
2013-05-11 20:59:00,59.6,52.0,29.66,NNE,32,0.0,0.0,76,0.00,,,0.27,0,Wunderground v.1.15,2013-05-12 00:59:00,
2013-05-11 21:06:00,59.5,51.9,29.65,NNE,32,0.0,0.0,76,0.00,,,0.27,0,Wunderground v.1.15,2013-05-12 01:06:00,
2013-05-11 21:11:00,59.3,52.1,29.65,NNW,334,0.0,0.0,77,0.00,,,0.27,0,Wunderground v.1.15,2013-05-12 01:11:00,
2013-05-11 21:16:00,59.2,51.6,29.64,NNW,334,0.0,0.0,76,0.00,,,0.27,0,Wunderground v.1.15,2013-05-12 01:16:00,
2013-05-11 21:21:00,59.2,52.3,29.64,NNW,334,0.0,0.0,78,0.00,,,0.27,0,Wunderground v.1.15,2013-05-12 01:21:00,
2013-05-11 21:27:00,59.0,52.5,29.64,NNW,334,0.0,0.0,79,0.00,,,0.27,0,Wunderground v.1.15,2013-05-12 01:27:00,
2013-05-11 21:32:00,59.0,52.5,29.64,NNW,334,0.0,0.0,79,0.00,,,0.27,0,Wunderground v.1.15,2013-05-12 01:32:00,
2013-05-11 21:38:00,58.7,51.2,29.64,NNW,334,0.0,0.0,76,0.00,,,0.27,0,Wunderground v.1.15,2013-05-12 01:38:00,
2013-05-11 21:44:00,58.6,51.4,29.64,NNW,334,0.0,0.0,77,0.00,,,0.27,0,Wunderground v.1.15,2013-05-12 01:44:00,
2013-05-11 21:49:00,58.4,50.9,29.64,NNW,334,0.0,0.0,76,0.00,,,0.27,0,Wunderground v.1.15,2013-05-12 01:49:00,
2013-05-11 21:55:00,58.4,51.2,29.64,NNW,334,0.0,0.0,77,0.00,,,0.27,0,Wunderground v.1.15,2013-05-12 01:55:00,
2013-05-11 22:00:00,58.4,50.9,29.64,NNW,334,0.0,0.0,76,0.00,,,0.27,0,Wunderground v.1.15,2013-05-12 02:00:00,
2013-05-11 22:06:00,58.3,50.8,29.64,NNW,334,0.0,0.0,76,0.00,,,0.27,0,Wunderground v.1.15,2013-05-12 02:06:00,
2013-05-11 22:11:00,58.1,50.6,29.64,NNW,334,0.0,0.0,76,0.00,,,0.27,0,Wunderground v.1.15,2013-05-12 02:11:00,
2013-05-11 22:17:00,58.1,50.6,29.64,NNW,334,0.0,0.0,76,0.00,,,0.27,0,Wunderground v.1.15,2013-05-12 02:17:00,
2013-05-11 22:22:00,58.1,50.6,29.64,NNW,334,0.0,0.0,76,0.00,,,0.27,0,Wunderground v.1.15,2013-05-12 02:22:00,
2013-05-11 22:28:00,58.1,50.6,29.64,NNW,334,0.0,1.0,76,0.00,,,0.27,0,Wunderground v.1.15,2013-05-12 02:28:00,
2013-05-11 22:33:00,58.0,50.5,29.65,NNW,334,0.0,0.0,76,0.00,,,0.27,0,Wunderground v.1.15,2013-05-12 02:33:00,
2013-05-11 22:38:00,57.8,50.3,29.65,NNW,342,0.0,0.0,76,0.00,,,0.27,0,Wunderground v.1.15,2013-05-12 02:38:00,
2013-05-11 22:44:00,57.5,50.0,29.65,NNW,342,0.0,0.0,76,0.00,,,0.27,0,Wunderground v.1.15,2013-05-12 02:44:00,
2013-05-11 22:49:00,57.2,49.7,29.65,NNW,342,0.0,0.0,76,0.00,,,0.27,0,Wunderground v.1.15,2013-05-12 02:49:00,
2013-05-11 22:55:00,56.7,49.6,29.65,NNW,342,0.0,0.0,77,0.00,,,0.27,0,Wunderground v.1.15,2013-05-12 02:55:00,
2013-05-11 23:00:00,56.5,49.7,29.66,NNW,342,0.0,0.0,78,0.00,,,0.27,0,Wunderground v.1.15,2013-05-12 03:00:00,
2013-05-11 23:06:00,56.5,50.1,29.66,NNW,342,0.0,0.0,79,0.00,,,0.27,0,Wunderground v.1.15,2013-05-12 03:06:00,
2013-05-11 23:11:00,56.3,50.2,29.66,NNW,342,0.0,0.0,80,0.00,,,0.27,0,Wunderground v.1.15,2013-05-12 03:11:00,
2013-05-11 23:16:00,56.2,49.8,29.65,North,358,0.0,0.0,79,0.00,,,0.27,0,Wunderground v.1.15,2013-05-12 03:16:00,
2013-05-11 23:22:00,56.0,48.5,29.65,North,358,0.0,0.0,76,0.00,,,0.27,0,Wunderground v.1.15,2013-05-12 03:22:00,
2013-05-11 23:28:00,56.0,48.9,29.65,North,358,0.0,0.0,77,0.00,,,0.27,0,Wunderground v.1.15,2013-05-12 03:28:00,
2013-05-11 23:33:00,55.9,48.4,29.64,North,358,0.0,0.0,76,0.00,,,0.27,0,Wunderground v.1.15,2013-05-12 03:33:00,
2013-05-11 23:38:00,55.9,48.1,29.64,South,169,0.0,0.0,75,0.00,,,0.27,0,Wunderground v.1.15,2013-05-12 03:38:00,
2013-05-11 23:44:00,55.9,47.7,29.64,South,169,0.0,0.0,74,0.00,,,0.27,0,Wunderground v.1.15,2013-05-12 03:44:00,
2013-05-11 23:49:00,55.7,47.5,29.64,South,169,0.0,0.0,74,0.00,,,0.27,0,Wunderground v.1.15,2013-05-12 03:49:00,
2013-05-11 23:55:00,55.6,47.1,29.64,South,169,0.0,0.0,73,0.00,,,0.27,0,Wunderground v.1.15,2013-05-12 03:55:00,